Location: Cheching
(60.0667°N, 164.2167°W)
Time: 21:36:30
(UTC+00:00)

NOAA 15 - Pass Details

Date: 26 January 2021
Orbit: 798 x 812 km, 98.7° (Epoch: 07 March)

Event Time Altitude Azimuth Distance (km) Brightness Sun altitude
Rises 06:56:34 0° 209° (SSW) 3,308 8.0 -29.3°
Reaches altitude 10° 06:59:28 10° 226° (SW) 2,385 7.4 -29.7°
Maximum altitude 07:03:23 21° 274° (W) 1,760 7.0 -30.2°
Drops below altitude 10° 07:07:20 10° 322° (NW) 2,404 7.7 -30.6°
Sets 07:10:17 0° 339° (NNW) 3,343 8.3 -31.0°
